User: anonymous   Login
Location: Unspecified
(0.0000°N, 0.0000°E)
Time: 01:22:25
(UTC+02:00)
Language:

Ariane H10 - Orbit

View from above orbital plane
View from above orbital plane
View from above satellite
View from above satellite

Ground track
Ground track

The orbit data is extracted from the following two-line orbital elements,

1 21727U 91067B   17292.62465077 -.00000060 +00000-0 +17696-3 0  9999
2 21727 004.1923 284.0974 7183696 248.7228 024.9562 02.31981655180857
Epoch (UTC): 19 October 2017 14:59:29
Eccentricity: 0.7183696
inclination: 4.1923°
perigee height: 410 km
apogee height: 35042 km
right ascension of ascending node: 284.0974°
argument of perigee: 248.7228°
revolutions per day: 2.31981655
mean anomaly at epoch: 24.9562°
orbit number at epoch: 18085

The dashed part of the orbit path shows where the satellite is in the earth's shadow,  

DLR